Year,Month,Day,Hour,Minute,Value (Times are PST for temperature in C)
2016,09,27,00,00,16.50
2016,09,27,00,01,16.50
2016,09,27,00,02,16.50
2016,09,27,00,03,16.50
2016,09,27,00,04,16.50
2016,09,27,00,05,16.50
2016,09,27,00,06,16.40
2016,09,27,00,07,16.40
2016,09,27,00,08,16.50
2016,09,27,00,09,16.40
2016,09,27,00,10,16.50
2016,09,27,00,11,16.50
2016,09,27,00,12,16.50
2016,09,27,00,13,16.50
2016,09,27,00,14,16.50
2016,09,27,00,15,16.50
2016,09,27,00,16,16.50
2016,09,27,00,17,16.50
2016,09,27,00,18,16.50
2016,09,27,00,19,16.50
2016,09,27,00,20,16.50
2016,09,27,00,21,16.50
2016,09,27,00,22,16.40
2016,09,27,00,23,16.40
2016,09,27,00,24,16.40
2016,09,27,00,25,16.40
2016,09,27,00,26,16.40
2016,09,27,00,27,16.40
2016,09,27,00,28,16.40
2016,09,27,00,29,16.40
2016,09,27,00,30,16.40
2016,09,27,00,31,16.40
2016,09,27,00,32,16.40
2016,09,27,00,33,16.40
2016,09,27,00,34,16.40
2016,09,27,00,35,16.40
2016,09,27,00,36,16.30
2016,09,27,00,37,16.30
2016,09,27,00,38,16.30
2016,09,27,00,39,16.30
2016,09,27,00,40,16.30
2016,09,27,00,41,16.30
2016,09,27,00,42,16.20
2016,09,27,00,43,16.20
2016,09,27,00,44,16.20
2016,09,27,00,45,16.10
2016,09,27,00,46,16.10
2016,09,27,00,47,16.10
2016,09,27,00,48,16.00
2016,09,27,00,49,16.00
2016,09,27,00,50,15.90
2016,09,27,00,51,15.90
2016,09,27,00,52,15.90
2016,09,27,00,53,15.90
2016,09,27,00,54,15.90
2016,09,27,00,55,15.90
2016,09,27,00,56,15.80
2016,09,27,00,57,15.80
2016,09,27,00,58,15.80
2016,09,27,00,59,15.80
2016,09,27,01,00,15.80
2016,09,27,01,01,15.80
2016,09,27,01,02,15.80
2016,09,27,01,03,15.80
2016,09,27,01,04,15.80
2016,09,27,01,05,15.80
2016,09,27,01,06,15.80
2016,09,27,01,07,15.70
2016,09,27,01,08,15.70
2016,09,27,01,09,15.70
2016,09,27,01,10,15.70
2016,09,27,01,11,15.70
2016,09,27,01,12,15.70
2016,09,27,01,13,15.70
2016,09,27,01,14,15.70
2016,09,27,01,15,15.70
2016,09,27,01,16,15.70
2016,09,27,01,17,15.70
2016,09,27,01,18,15.70
2016,09,27,01,19,15.60
2016,09,27,01,20,15.60
2016,09,27,01,21,15.60
2016,09,27,01,22,15.60
2016,09,27,01,23,15.60
2016,09,27,01,24,15.60
2016,09,27,01,25,15.60
2016,09,27,01,26,15.60
2016,09,27,01,27,15.60
2016,09,27,01,28,15.60
2016,09,27,01,29,15.60
2016,09,27,01,30,15.60
2016,09,27,01,31,15.60
2016,09,27,01,32,15.60
2016,09,27,01,33,15.60
2016,09,27,01,34,15.70
2016,09,27,01,35,15.70
2016,09,27,01,36,15.70
2016,09,27,01,37,15.70
2016,09,27,01,38,15.70
2016,09,27,01,39,15.70
2016,09,27,01,40,15.70
2016,09,27,01,41,15.70
2016,09,27,01,42,15.70
2016,09,27,01,43,15.80
2016,09,27,01,44,15.80
2016,09,27,01,45,15.80
2016,09,27,01,46,15.80
2016,09,27,01,47,15.80
2016,09,27,01,48,15.80
2016,09,27,01,49,15.80
2016,09,27,01,50,15.90
2016,09,27,01,51,15.90
2016,09,27,01,52,15.90
2016,09,27,01,53,15.90
2016,09,27,01,54,15.90
2016,09,27,01,55,15.90
2016,09,27,01,56,15.90
2016,09,27,01,57,15.90
2016,09,27,01,58,15.90
2016,09,27,01,59,15.90
2016,09,27,02,00,15.90
2016,09,27,02,01,15.90
2016,09,27,02,02,15.90
2016,09,27,02,03,15.90
2016,09,27,02,04,15.90
2016,09,27,02,05,15.90
2016,09,27,02,06,15.90
2016,09,27,02,07,15.90
2016,09,27,02,08,15.90
2016,09,27,02,09,15.90
2016,09,27,02,10,15.90
2016,09,27,02,11,15.90
2016,09,27,02,12,15.90
2016,09,27,02,13,15.90
2016,09,27,02,14,15.90
2016,09,27,02,15,15.90
2016,09,27,02,16,15.80
2016,09,27,02,17,15.80
2016,09,27,02,18,15.80
2016,09,27,02,19,15.80
2016,09,27,02,20,15.80
2016,09,27,02,21,15.80
2016,09,27,02,22,15.80
2016,09,27,02,23,15.80
2016,09,27,02,24,15.80
2016,09,27,02,25,15.70
2016,09,27,02,26,15.70
2016,09,27,02,27,15.70
2016,09,27,02,28,15.70
2016,09,27,02,29,15.70
2016,09,27,02,30,15.60
2016,09,27,02,31,15.60
2016,09,27,02,32,15.60
2016,09,27,02,33,15.60
2016,09,27,02,34,15.60
2016,09,27,02,35,15.50
2016,09,27,02,36,15.50
2016,09,27,02,37,15.50
2016,09,27,02,38,15.40
2016,09,27,02,39,15.40
2016,09,27,02,40,15.40
2016,09,27,02,41,15.40
2016,09,27,02,42,15.40
2016,09,27,02,43,15.30
2016,09,27,02,44,15.30
2016,09,27,02,45,15.30
2016,09,27,02,46,15.30
2016,09,27,02,47,15.30
2016,09,27,02,48,15.30
2016,09,27,02,49,15.20
2016,09,27,02,50,15.20
2016,09,27,02,51,15.20
2016,09,27,02,52,15.20
2016,09,27,02,53,15.20
2016,09,27,02,54,15.20
2016,09,27,02,55,15.10
2016,09,27,02,56,15.10
2016,09,27,02,57,15.10
2016,09,27,02,58,15.10
2016,09,27,02,59,15.10
2016,09,27,03,00,15.00
2016,09,27,03,01,15.00
2016,09,27,03,02,15.00
2016,09,27,03,03,14.90
2016,09,27,03,04,14.90
2016,09,27,03,05,14.90
2016,09,27,03,06,14.90
2016,09,27,03,07,14.90
2016,09,27,03,08,14.80
2016,09,27,03,09,14.80
2016,09,27,03,10,14.80
2016,09,27,03,11,14.80
2016,09,27,03,12,14.70
2016,09,27,03,13,14.70
2016,09,27,03,14,14.70
2016,09,27,03,15,14.70
2016,09,27,03,16,14.60
2016,09,27,03,17,14.60
2016,09,27,03,18,14.60
2016,09,27,03,19,14.50
2016,09,27,03,20,14.50
2016,09,27,03,21,14.50
2016,09,27,03,22,14.40
2016,09,27,03,23,14.40
2016,09,27,03,24,14.40
2016,09,27,03,25,14.30
2016,09,27,03,26,14.30
2016,09,27,03,27,14.20
2016,09,27,03,28,14.20
2016,09,27,03,29,14.20
2016,09,27,03,30,14.10
2016,09,27,03,31,14.10
2016,09,27,03,32,14.00
2016,09,27,03,33,14.00
2016,09,27,03,34,13.90
2016,09,27,03,35,13.90
2016,09,27,03,36,13.90
2016,09,27,03,37,13.90
2016,09,27,03,38,13.80
2016,09,27,03,39,13.80
2016,09,27,03,40,13.80
2016,09,27,03,41,13.80
2016,09,27,03,42,13.80
2016,09,27,03,43,13.80
2016,09,27,03,44,13.80
2016,09,27,03,45,13.80
2016,09,27,03,46,13.80
2016,09,27,03,47,13.80
2016,09,27,03,48,13.80
2016,09,27,03,49,13.80
2016,09,27,03,50,13.70
2016,09,27,03,51,13.80
2016,09,27,03,52,13.70
2016,09,27,03,53,13.80
2016,09,27,03,54,13.70
2016,09,27,03,55,13.70
2016,09,27,03,56,13.70
2016,09,27,03,57,13.70
2016,09,27,03,58,13.70
2016,09,27,03,59,13.70
2016,09,27,04,00,13.70
2016,09,27,04,01,13.70
2016,09,27,04,02,13.70
2016,09,27,04,03,13.70
2016,09,27,05,04,12.90
2016,09,27,05,05,12.80
2016,09,27,05,06,12.80
2016,09,27,05,07,12.80
2016,09,27,05,08,12.80
2016,09,27,05,09,12.80
2016,09,27,05,10,12.80
2016,09,27,05,11,12.80
2016,09,27,05,12,12.80
2016,09,27,05,13,12.80
2016,09,27,05,14,12.80
2016,09,27,05,15,12.80
2016,09,27,05,16,12.80
2016,09,27,05,17,12.80
2016,09,27,05,18,12.80
2016,09,27,05,19,12.80
2016,09,27,05,20,12.80
2016,09,27,05,21,12.80
2016,09,27,05,22,12.80
2016,09,27,05,23,12.70
2016,09,27,05,24,12.70
2016,09,27,05,25,12.70
2016,09,27,05,26,12.70
2016,09,27,05,27,12.70
2016,09,27,05,28,12.70
2016,09,27,05,29,12.70
2016,09,27,05,30,12.70
2016,09,27,05,31,12.60
2016,09,27,05,32,12.60
2016,09,27,05,33,12.60
2016,09,27,05,34,12.60
2016,09,27,05,35,12.60
2016,09,27,05,36,12.60
2016,09,27,05,37,12.60
2016,09,27,05,38,12.60
2016,09,27,05,39,12.60
2016,09,27,05,40,12.60
2016,09,27,05,41,12.60
2016,09,27,05,42,12.60
2016,09,27,05,43,12.60
2016,09,27,05,44,12.60
2016,09,27,05,45,12.60
2016,09,27,05,46,12.60
2016,09,27,05,47,12.60
2016,09,27,05,48,12.60
2016,09,27,05,49,12.70
2016,09,27,05,50,12.70
2016,09,27,05,51,12.70
2016,09,27,05,52,12.80
2016,09,27,05,53,12.80
2016,09,27,05,54,12.80
2016,09,27,05,55,12.80
2016,09,27,05,56,12.80
2016,09,27,05,57,12.80
2016,09,27,05,58,12.80
2016,09,27,05,59,12.80
2016,09,27,06,00,12.80
2016,09,27,06,01,12.80
2016,09,27,06,02,12.80
2016,09,27,06,03,12.70
2016,09,27,06,04,12.70
2016,09,27,06,05,12.70
2016,09,27,06,06,12.70
2016,09,27,06,07,12.70
2016,09,27,06,08,12.70
2016,09,27,06,09,12.70
2016,09,27,06,10,12.70
2016,09,27,06,11,12.70
2016,09,27,06,12,12.70
2016,09,27,06,13,12.70
2016,09,27,06,14,12.70
2016,09,27,06,15,12.70
2016,09,27,06,16,12.70
2016,09,27,06,17,12.70
2016,09,27,06,18,12.70
2016,09,27,06,19,12.60
2016,09,27,06,20,12.60
2016,09,27,06,21,12.60
2016,09,27,06,22,12.60
2016,09,27,06,23,12.60
2016,09,27,06,24,12.50
2016,09,27,06,25,12.50
2016,09,27,06,26,12.40
2016,09,27,06,27,12.40
2016,09,27,06,28,12.40
2016,09,27,06,29,12.40
2016,09,27,06,30,12.40
2016,09,27,06,31,12.50
2016,09,27,06,32,12.50
2016,09,27,06,33,12.50
2016,09,27,06,34,12.50
2016,09,27,06,35,12.60
2016,09,27,06,36,12.60
2016,09,27,06,37,12.60
2016,09,27,06,38,12.60
2016,09,27,06,39,12.60
2016,09,27,06,40,12.60
2016,09,27,06,41,12.60
2016,09,27,06,42,12.60
2016,09,27,06,43,12.60
2016,09,27,06,44,12.60
2016,09,27,06,45,12.60
2016,09,27,06,46,12.60
2016,09,27,06,47,12.60
2016,09,27,06,48,12.60
2016,09,27,06,49,12.60
2016,09,27,06,50,12.60
2016,09,27,06,51,12.60
2016,09,27,06,52,12.60
2016,09,27,06,53,12.60
2016,09,27,06,54,12.70
2016,09,27,06,55,12.70
2016,09,27,06,56,12.70
2016,09,27,06,57,12.70
2016,09,27,06,58,12.70
2016,09,27,06,59,12.80
2016,09,27,07,00,12.80
2016,09,27,07,01,12.80
2016,09,27,07,02,12.80
2016,09,27,07,03,12.80
2016,09,27,07,04,12.90
2016,09,27,07,05,12.90
2016,09,27,07,06,12.90
2016,09,27,07,07,12.90
2016,09,27,07,08,12.80
2016,09,27,07,09,12.80
2016,09,27,07,10,12.80
2016,09,27,07,11,12.80
2016,09,27,07,12,12.70
2016,09,27,07,13,12.70
2016,09,27,07,14,12.70
2016,09,27,07,15,12.60
2016,09,27,07,16,12.50
2016,09,27,07,17,12.50
2016,09,27,07,18,12.40
2016,09,27,07,19,12.40
2016,09,27,07,20,12.40
2016,09,27,07,21,12.40
2016,09,27,07,22,12.40
2016,09,27,07,23,12.40
2016,09,27,07,24,12.40
2016,09,27,07,25,12.40
2016,09,27,07,26,12.40
2016,09,27,07,27,12.40
2016,09,27,07,28,12.40
2016,09,27,07,29,12.40
2016,09,27,07,30,12.40
2016,09,27,07,31,12.40
2016,09,27,07,32,12.40
2016,09,27,07,33,12.40
2016,09,27,07,34,12.40
2016,09,27,07,35,12.40
2016,09,27,07,36,12.40
2016,09,27,07,37,12.40
2016,09,27,07,38,12.40
2016,09,27,07,39,12.40
2016,09,27,07,40,12.40
2016,09,27,07,41,12.40
2016,09,27,07,42,12.40
2016,09,27,07,43,12.40
2016,09,27,07,44,12.40
2016,09,27,07,45,12.40
2016,09,27,07,46,12.40
2016,09,27,07,47,12.40
2016,09,27,07,48,12.40
2016,09,27,07,49,12.30
2016,09,27,07,50,12.30
2016,09,27,07,51,12.30
2016,09,27,07,52,12.30
2016,09,27,07,53,12.30
2016,09,27,07,54,12.30
2016,09,27,07,55,12.30
2016,09,27,07,56,12.30
2016,09,27,07,57,12.30
2016,09,27,07,58,12.30
2016,09,27,07,59,12.30
2016,09,27,08,00,12.30
2016,09,27,08,01,12.30
2016,09,27,08,02,12.30
2016,09,27,08,03,12.30
2016,09,27,08,04,12.30
2016,09,27,08,05,12.30
2016,09,27,08,06,12.30
2016,09,27,08,07,12.30
2016,09,27,08,08,12.30
2016,09,27,08,09,12.30
2016,09,27,08,10,12.30
2016,09,27,08,11,12.30
2016,09,27,08,12,12.30
2016,09,27,08,13,12.30
2016,09,27,08,14,12.30
2016,09,27,08,15,12.30
2016,09,27,08,16,12.30
2016,09,27,08,17,12.30
2016,09,27,08,18,12.30
2016,09,27,08,19,12.30
2016,09,27,08,20,12.30
2016,09,27,08,21,12.30
2016,09,27,08,22,12.30
2016,09,27,08,23,12.30
2016,09,27,08,24,12.30
2016,09,27,08,25,12.30
2016,09,27,08,26,12.40
2016,09,27,08,27,12.40
2016,09,27,08,28,12.40
2016,09,27,08,29,12.40
2016,09,27,08,30,12.40
2016,09,27,08,31,12.40
2016,09,27,08,32,12.50
2016,09,27,08,33,12.50
2016,09,27,08,34,12.50
2016,09,27,08,35,12.50
2016,09,27,08,36,12.60
2016,09,27,08,37,12.60
2016,09,27,08,38,12.60
2016,09,27,08,39,12.60
2016,09,27,08,40,12.60
2016,09,27,08,41,12.60
2016,09,27,08,42,12.70
2016,09,27,08,43,12.70
2016,09,27,08,44,12.70
2016,09,27,08,45,12.70
2016,09,27,08,46,12.70
2016,09,27,08,47,12.80
2016,09,27,08,48,12.80
2016,09,27,08,49,12.80
2016,09,27,08,50,12.80
2016,09,27,08,51,12.80
2016,09,27,08,52,12.90
2016,09,27,08,53,12.90
2016,09,27,08,54,12.90
2016,09,27,08,55,13.00
2016,09,27,08,56,13.00
2016,09,27,08,57,13.00
2016,09,27,08,58,13.00
2016,09,27,08,59,13.10
2016,09,27,09,00,13.10
2016,09,27,09,01,13.10
2016,09,27,09,02,13.20
2016,09,27,09,03,13.20
2016,09,27,09,04,13.20
2016,09,27,09,05,13.20
2016,09,27,09,06,13.30
2016,09,27,09,07,13.30
2016,09,27,09,08,13.30
2016,09,27,09,09,13.30
2016,09,27,09,10,13.40
2016,09,27,09,11,13.40
2016,09,27,09,12,13.40
2016,09,27,09,13,13.40
2016,09,27,09,14,13.40
2016,09,27,09,15,13.40
2016,09,27,09,16,13.40
2016,09,27,09,17,13.40
2016,09,27,09,18,13.40
2016,09,27,09,19,13.50
2016,09,27,09,20,13.50
2016,09,27,09,21,13.60
2016,09,27,09,22,13.60
2016,09,27,09,23,13.70
2016,09,27,09,24,13.80
2016,09,27,09,25,13.80
2016,09,27,09,26,13.90
2016,09,27,09,27,14.00
2016,09,27,09,28,14.10
2016,09,27,09,29,14.20
2016,09,27,09,30,14.30
2016,09,27,09,31,14.40
2016,09,27,09,32,14.50
2016,09,27,09,33,14.60
2016,09,27,09,34,14.60
2016,09,27,09,35,14.70
2016,09,27,09,36,14.80
2016,09,27,09,37,14.90
2016,09,27,09,38,15.00
2016,09,27,09,39,15.10
2016,09,27,09,40,15.10
2016,09,27,09,41,15.20
2016,09,27,09,42,15.30
2016,09,27,09,43,15.30
2016,09,27,09,44,15.30
2016,09,27,09,45,15.40
2016,09,27,09,46,15.40
2016,09,27,09,47,15.50
2016,09,27,09,48,15.60
2016,09,27,09,49,15.70
2016,09,27,09,50,15.80
2016,09,27,09,51,15.80
2016,09,27,09,52,15.90
2016,09,27,09,53,16.00
2016,09,27,09,54,16.10
2016,09,27,09,55,16.10
2016,09,27,09,56,16.20
2016,09,27,09,57,16.30
2016,09,27,09,58,16.30
2016,09,27,09,59,16.30
2016,09,27,10,00,16.30
2016,09,27,10,01,16.40
2016,09,27,10,02,16.40
2016,09,27,10,03,16.40
2016,09,27,10,04,16.40
2016,09,27,10,05,16.40
2016,09,27,10,06,16.40
2016,09,27,10,07,16.40
2016,09,27,10,08,16.40
2016,09,27,10,09,16.40
2016,09,27,10,10,16.40
2016,09,27,10,11,16.30
2016,09,27,10,12,16.30
2016,09,27,10,13,16.30
2016,09,27,10,14,16.30
2016,09,27,10,15,16.30
2016,09,27,10,16,16.30
2016,09,27,10,17,16.30
2016,09,27,10,18,16.30
2016,09,27,10,19,16.30
2016,09,27,10,20,16.30
2016,09,27,10,21,16.30
2016,09,27,10,22,16.30
2016,09,27,10,23,16.30
2016,09,27,10,24,16.40
2016,09,27,10,25,16.40
2016,09,27,10,26,16.40
2016,09,27,10,27,16.40
2016,09,27,10,28,16.40
2016,09,27,10,29,16.40
2016,09,27,10,30,16.40
2016,09,27,10,31,16.40
2016,09,27,10,32,16.40
2016,09,27,10,33,16.40
2016,09,27,10,34,16.50
2016,09,27,10,35,16.50
2016,09,27,10,36,16.50
2016,09,27,10,37,16.60
2016,09,27,10,38,16.70
2016,09,27,10,39,16.70
2016,09,27,10,40,16.70
2016,09,27,10,41,16.80
2016,09,27,10,42,16.80
2016,09,27,10,43,16.80
2016,09,27,10,44,16.80
2016,09,27,10,45,16.90
2016,09,27,10,46,16.90
2016,09,27,10,47,17.00
2016,09,27,10,48,17.10
2016,09,27,10,49,17.10
2016,09,27,10,50,17.20
2016,09,27,10,51,17.20
2016,09,27,10,52,17.20
2016,09,27,10,53,17.10
2016,09,27,10,54,17.10
2016,09,27,10,55,17.10
2016,09,27,10,56,17.10
2016,09,27,10,57,17.00
2016,09,27,10,58,17.00
2016,09,27,10,59,17.00
2016,09,27,11,00,17.00
2016,09,27,11,01,17.00
2016,09,27,11,02,17.00
2016,09,27,11,03,17.00
2016,09,27,11,04,17.00
2016,09,27,11,05,17.00
2016,09,27,11,06,17.00
2016,09,27,11,07,17.00
2016,09,27,11,08,17.10
2016,09,27,11,09,17.10
2016,09,27,11,10,17.10
2016,09,27,11,11,17.10
2016,09,27,11,12,17.10
2016,09,27,11,13,17.00
2016,09,27,11,14,17.00
2016,09,27,11,15,17.00
2016,09,27,11,16,17.00
2016,09,27,11,17,17.00
2016,09,27,11,18,17.00
2016,09,27,11,19,17.10
2016,09,27,11,20,17.10
2016,09,27,11,21,17.10
2016,09,27,11,22,17.10
2016,09,27,11,23,17.10
2016,09,27,11,24,17.00
2016,09,27,11,25,16.90
2016,09,27,11,26,16.90
2016,09,27,11,27,16.90
2016,09,27,11,28,17.00
2016,09,27,11,29,17.00
2016,09,27,11,30,17.00
2016,09,27,11,31,17.10
2016,09,27,11,32,17.10
2016,09,27,11,33,17.20
2016,09,27,11,34,17.30
2016,09,27,11,35,17.30
2016,09,27,11,36,17.40
2016,09,27,11,37,17.40
2016,09,27,11,38,17.50
2016,09,27,11,39,17.50
2016,09,27,11,40,17.50
2016,09,27,11,41,17.50
2016,09,27,11,42,17.50
2016,09,27,11,43,17.50
2016,09,27,11,44,17.50
2016,09,27,11,45,17.40
2016,09,27,11,46,17.40
2016,09,27,11,47,17.40
2016,09,27,11,48,17.40
2016,09,27,11,49,17.50
2016,09,27,11,50,17.50
2016,09,27,11,51,17.50
2016,09,27,11,52,17.60
2016,09,27,11,53,17.60
2016,09,27,11,54,17.70
2016,09,27,11,55,17.60
2016,09,27,11,56,17.50
2016,09,27,11,57,17.40
2016,09,27,11,58,17.30
2016,09,27,11,59,17.30
2016,09,27,12,00,17.20
2016,09,27,12,01,17.20
2016,09,27,12,02,17.20
2016,09,27,12,03,17.30
2016,09,27,12,04,17.20
2016,09,27,12,05,17.20
2016,09,27,12,06,17.10
2016,09,27,12,07,17.10
2016,09,27,12,08,17.20
2016,09,27,12,09,17.20
2016,09,27,12,10,17.20
2016,09,27,12,11,17.30
2016,09,27,12,12,17.40
2016,09,27,12,13,17.40
2016,09,27,12,14,17.40
2016,09,27,12,15,17.30
2016,09,27,12,16,17.30
2016,09,27,12,17,17.30
2016,09,27,12,18,17.30
2016,09,27,12,19,17.30
2016,09,27,12,20,17.40
2016,09,27,12,21,17.40
2016,09,27,12,22,17.30
2016,09,27,12,23,17.30
2016,09,27,12,24,17.30
2016,09,27,12,25,17.30
2016,09,27,12,26,17.40
2016,09,27,12,27,17.40
2016,09,27,12,28,17.40
2016,09,27,12,29,17.40
2016,09,27,12,30,17.30
2016,09,27,12,31,17.20
2016,09,27,12,32,17.20
2016,09,27,12,33,17.10
2016,09,27,12,34,17.10
2016,09,27,12,35,17.10
2016,09,27,12,36,17.10
2016,09,27,12,37,17.00
2016,09,27,12,38,17.00
2016,09,27,12,39,16.90
2016,09,27,12,40,16.90
2016,09,27,12,41,17.00
2016,09,27,12,42,17.10
2016,09,27,12,43,17.10
2016,09,27,12,44,17.20
2016,09,27,12,45,17.20
2016,09,27,12,46,17.20
2016,09,27,12,47,17.20
2016,09,27,12,48,17.20
2016,09,27,12,49,17.20
2016,09,27,12,50,17.20
2016,09,27,12,51,17.20
2016,09,27,12,52,17.20
2016,09,27,12,53,17.10
2016,09,27,12,54,17.10
2016,09,27,12,55,17.10
2016,09,27,12,56,17.10
2016,09,27,12,57,17.20
2016,09,27,12,58,17.20
2016,09,27,12,59,17.20
2016,09,27,13,00,17.20
2016,09,27,13,01,17.30
2016,09,27,13,02,17.30
2016,09,27,13,03,17.30
2016,09,27,13,04,17.40
2016,09,27,13,05,17.40
2016,09,27,13,06,17.50
2016,09,27,13,07,17.60
2016,09,27,13,08,17.60
2016,09,27,13,09,17.70
2016,09,27,13,10,17.70
2016,09,27,13,11,17.70
2016,09,27,13,12,17.70
2016,09,27,13,13,17.70
2016,09,27,13,14,17.70
2016,09,27,13,15,17.70
2016,09,27,13,16,17.70
2016,09,27,13,17,17.70
2016,09,27,13,18,17.60
2016,09,27,13,19,17.50
2016,09,27,13,20,17.40
2016,09,27,13,21,17.40
2016,09,27,13,22,17.40
2016,09,27,13,23,17.40
2016,09,27,13,24,17.40
2016,09,27,13,25,17.40
2016,09,27,13,26,17.40
2016,09,27,13,27,17.30
2016,09,27,13,28,17.30
2016,09,27,13,29,17.20
2016,09,27,13,30,17.20
2016,09,27,13,31,17.20
2016,09,27,13,32,17.20
2016,09,27,13,33,17.20
2016,09,27,13,34,17.20
2016,09,27,13,35,17.30
2016,09,27,13,36,17.30
2016,09,27,13,37,17.30
2016,09,27,13,38,17.30
2016,09,27,13,39,17.40
2016,09,27,13,40,17.50
2016,09,27,13,41,17.60
2016,09,27,13,42,17.60
2016,09,27,13,43,17.60
2016,09,27,13,44,17.60
2016,09,27,13,45,17.60
2016,09,27,13,46,17.60
2016,09,27,13,47,17.70
2016,09,27,13,48,17.70
2016,09,27,13,49,17.70
2016,09,27,13,50,17.80
2016,09,27,13,51,17.80
2016,09,27,13,52,17.90
2016,09,27,13,53,18.00
2016,09,27,13,54,18.10
2016,09,27,13,55,18.20
2016,09,27,13,56,18.30
2016,09,27,13,57,18.30
2016,09,27,13,58,18.20
2016,09,27,13,59,18.10
2016,09,27,14,00,18.10
2016,09,27,14,01,18.10
2016,09,27,14,02,18.10
2016,09,27,14,03,18.20
2016,09,27,14,04,18.10
2016,09,27,14,05,18.10
2016,09,27,14,06,18.20
2016,09,27,14,07,18.20
2016,09,27,14,08,18.30
2016,09,27,14,09,18.30
2016,09,27,14,10,18.30
2016,09,27,14,11,18.30
2016,09,27,14,12,18.20
2016,09,27,14,13,18.20
2016,09,27,14,14,18.20
2016,09,27,14,15,18.20
2016,09,27,14,16,18.20
2016,09,27,14,17,18.30
2016,09,27,14,18,18.40
2016,09,27,14,19,18.40
2016,09,27,14,20,18.40
2016,09,27,14,21,18.30
2016,09,27,14,22,18.30
2016,09,27,14,23,18.30
2016,09,27,14,24,18.20
2016,09,27,14,25,18.20
2016,09,27,14,26,18.20
2016,09,27,14,27,18.10
2016,09,27,14,28,18.10
2016,09,27,14,29,18.20
2016,09,27,14,30,18.10
2016,09,27,14,31,18.10
2016,09,27,14,32,18.20
2016,09,27,14,33,18.20
2016,09,27,14,34,18.20
2016,09,27,14,35,18.20
2016,09,27,14,36,18.20
2016,09,27,14,37,18.20
2016,09,27,14,38,18.20
2016,09,27,14,39,18.20
2016,09,27,14,40,18.10
2016,09,27,14,41,18.10
2016,09,27,14,42,18.20
2016,09,27,14,43,18.20
2016,09,27,14,44,18.20
2016,09,27,14,45,18.20
2016,09,27,14,46,18.30
2016,09,27,14,47,18.30
2016,09,27,14,48,18.30
2016,09,27,14,49,18.40
2016,09,27,14,50,18.40
2016,09,27,14,51,18.40
2016,09,27,14,52,18.40
2016,09,27,14,53,18.40
2016,09,27,14,54,18.40
2016,09,27,14,55,18.40
2016,09,27,14,56,18.40
2016,09,27,14,57,18.50
2016,09,27,14,58,18.50
2016,09,27,14,59,18.60
2016,09,27,15,00,18.60
2016,09,27,15,01,18.60
2016,09,27,15,02,18.70
2016,09,27,15,03,18.70
2016,09,27,15,04,18.70
2016,09,27,15,05,18.70
2016,09,27,15,06,18.70
2016,09,27,15,07,18.70
2016,09,27,15,08,18.70
2016,09,27,15,09,18.60
2016,09,27,15,10,18.60
2016,09,27,15,11,18.60
2016,09,27,15,12,18.60
2016,09,27,15,13,18.60
2016,09,27,15,14,18.60
2016,09,27,15,15,18.50
2016,09,27,15,16,18.50
2016,09,27,15,17,18.50
2016,09,27,15,18,18.50
2016,09,27,15,19,18.40
2016,09,27,15,20,18.40
2016,09,27,15,21,18.30
2016,09,27,15,22,18.40
2016,09,27,15,23,18.40
2016,09,27,15,24,18.40
2016,09,27,15,25,18.50
2016,09,27,15,26,18.50
2016,09,27,15,27,18.60
2016,09,27,15,28,18.60
2016,09,27,15,29,18.50
2016,09,27,15,30,18.40
2016,09,27,15,31,18.40
2016,09,27,15,32,18.40
2016,09,27,15,33,18.30
2016,09,27,15,34,18.30
2016,09,27,15,35,18.20
2016,09,27,15,36,18.20
2016,09,27,15,37,18.20
2016,09,27,15,38,18.30
2016,09,27,15,39,18.30
2016,09,27,15,40,18.30
2016,09,27,15,41,18.30
2016,09,27,15,42,18.30
2016,09,27,15,43,18.40
2016,09,27,15,44,18.40
2016,09,27,15,45,18.40
2016,09,27,15,46,18.30
2016,09,27,15,47,18.30
2016,09,27,15,48,18.30
2016,09,27,15,49,18.20
2016,09,27,15,50,18.20
2016,09,27,15,51,18.20
2016,09,27,15,52,18.10
2016,09,27,15,53,18.10
2016,09,27,15,54,18.10
2016,09,27,15,55,18.10
2016,09,27,15,56,18.10
2016,09,27,15,57,18.10
2016,09,27,15,58,18.10
2016,09,27,15,59,18.10
2016,09,27,16,00,18.20
2016,09,27,16,01,18.20
2016,09,27,16,02,18.20
2016,09,27,16,03,18.20
2016,09,27,16,04,18.20
2016,09,27,16,05,18.20
2016,09,27,16,06,18.20
2016,09,27,16,07,18.20
2016,09,27,16,08,18.20
2016,09,27,16,09,18.30
2016,09,27,16,10,18.30
2016,09,27,16,11,18.30
2016,09,27,16,12,18.20
2016,09,27,16,13,18.00
2016,09,27,16,14,17.90
2016,09,27,16,15,17.80
2016,09,27,16,16,17.80
2016,09,27,16,17,17.80
2016,09,27,16,18,17.70
2016,09,27,16,19,17.70
2016,09,27,16,20,17.70
2016,09,27,16,21,17.70
2016,09,27,16,22,17.70
2016,09,27,16,23,17.70
2016,09,27,16,24,17.70
2016,09,27,16,25,17.70
2016,09,27,16,26,17.80
2016,09,27,16,27,17.80
2016,09,27,16,28,17.80
2016,09,27,16,29,17.70
2016,09,27,16,30,17.60
2016,09,27,16,31,17.50
2016,09,27,16,32,17.40
2016,09,27,16,33,17.30
2016,09,27,16,34,17.30
2016,09,27,16,35,17.20
2016,09,27,16,36,17.20
2016,09,27,16,37,17.20
2016,09,27,16,38,17.20
2016,09,27,16,39,17.20
2016,09,27,16,40,17.10
2016,09,27,16,41,17.10
2016,09,27,16,42,17.10
2016,09,27,16,43,17.10
2016,09,27,16,44,17.10
2016,09,27,16,45,17.10
2016,09,27,16,46,17.20
2016,09,27,16,47,17.20
2016,09,27,16,48,17.10
2016,09,27,16,49,17.10
2016,09,27,16,50,17.10
2016,09,27,16,51,17.20
2016,09,27,16,52,17.30
2016,09,27,16,53,17.30
2016,09,27,16,54,17.30
2016,09,27,16,55,17.40
2016,09,27,16,56,17.40
2016,09,27,16,57,17.50
2016,09,27,16,58,17.50
2016,09,27,16,59,17.60
2016,09,27,17,00,17.60
2016,09,27,17,01,17.60
2016,09,27,17,02,17.60
2016,09,27,17,03,17.60
2016,09,27,17,04,17.60
2016,09,27,17,05,17.50
2016,09,27,17,06,17.40
2016,09,27,17,07,17.30
2016,09,27,17,08,17.30
2016,09,27,17,09,17.20
2016,09,27,17,10,17.20
2016,09,27,17,11,17.10
2016,09,27,17,12,17.10
2016,09,27,17,13,17.10
2016,09,27,17,14,17.10
2016,09,27,17,15,17.00
2016,09,27,17,16,17.00
2016,09,27,17,17,17.00
2016,09,27,17,18,16.90
2016,09,27,17,19,16.90
2016,09,27,17,20,16.90
2016,09,27,17,21,16.90
2016,09,27,17,22,16.80
2016,09,27,17,23,16.80
2016,09,27,17,24,16.80
2016,09,27,17,25,16.80
2016,09,27,17,26,16.80
2016,09,27,17,27,16.80
2016,09,27,17,28,16.80
2016,09,27,17,29,16.80
2016,09,27,17,30,16.70
2016,09,27,17,31,16.70
2016,09,27,17,32,16.70
2016,09,27,17,33,16.70
2016,09,27,17,34,16.60
2016,09,27,17,35,16.60
2016,09,27,17,36,16.60
2016,09,27,17,37,16.70
2016,09,27,17,38,16.70
2016,09,27,17,39,16.70
2016,09,27,17,40,16.70
2016,09,27,17,41,16.60
2016,09,27,17,42,16.60
2016,09,27,17,43,16.50
2016,09,27,17,44,16.50
2016,09,27,17,45,16.40
2016,09,27,17,46,16.30
2016,09,27,17,47,16.30
2016,09,27,17,48,16.30
2016,09,27,17,49,16.30
2016,09,27,17,50,16.20
2016,09,27,17,51,16.20
2016,09,27,17,52,16.20
2016,09,27,17,53,16.10
2016,09,27,17,54,16.00
2016,09,27,17,55,16.00
2016,09,27,17,56,15.90
2016,09,27,17,57,15.90
2016,09,27,17,58,15.80
2016,09,27,17,59,15.80
2016,09,27,18,00,15.80
2016,09,27,18,01,15.80
2016,09,27,18,02,15.70
2016,09,27,18,03,15.70
2016,09,27,18,04,15.70
2016,09,27,18,05,15.70
2016,09,27,18,06,15.70
2016,09,27,18,07,15.70
2016,09,27,18,08,15.70
2016,09,27,18,09,15.70
2016,09,27,18,10,15.70
2016,09,27,18,11,15.70
2016,09,27,18,12,15.70
2016,09,27,18,13,15.70
2016,09,27,18,14,15.70
2016,09,27,18,15,15.70
2016,09,27,18,16,15.80
2016,09,27,18,17,15.80
2016,09,27,18,18,15.80
2016,09,27,18,19,15.80